Theta_e
286 280 278 279 279 281 282 282 283 283 282 282 281 279 279 279 281 283 285 287 289 286 285 286 287 288 289 290 291 292 293 293 294 294 295 297 301 314 319 321 322 323 325 328 330 331 332 331 331 331 332 331 331 331 331 331 332 332 333 335 335 337 338 338 337 337 336 334 333 332 332 332 331 332 332 333 333 334 335 335 335 336 335 335 336 336
286 279 279 280 281 282 283 283 283 282 282 281 280 279 279 279 279 283 284 287 288 285 283 286 286 286 287 289 291 292 292 292 293 293 294 295 298 310 318 320 321 324 327 328 328 330 330 330 330 330 330 331 329 330 331 331 332 332 333 334 335 337 338 338 337 337 336 335 334 332 331 330 331 332 332 333 334 334 335 335 335 335 334 335 336 337
280 279 282 281 282 282 283 283 282 282 281 281 280 279 278 280 282 284 284 286 288 286 283 285 283 284 286 288 290 291 291 293 294 294 295 295 296 304 316 319 321 323 324 326 327 329 330 330 329 329 330 330 331 330 331 331 332 332 332 333 335 336 337 337 337 336 335 335 334 332 329 331 329 329 334 335 335 335 334 334 335 335 334 334 335 336
278 281 284 285 283 282 281 281 281 281 281 279 279 277 277 280 279 276 282 285 285 285 281 283 282 284 287 288 289 290 292 293 295 295 295 296 296 299 311 318 320 322 323 324 326 328 330 330 329 329 329 330 330 330 330 331 331 331 332 332 334 335 336 336 336 336 335 335 333 332 331 331 331 329 333 334 334 334 333 333 334 334 334 334 334 335
281 284 284 283 283 283 281 281 280 279 278 280 280 279 279 279 280 280 281 284 285 286 286 285 282 283 285 284 286 289 292 293 294 295 295 296 298 300 306 318 321 322 323 324 325 327 329 329 329 328 329 330 329 330 330 331 331 332 331 332 334 334 335 336 336 336 334 334 331 330 330 331 330 332 333 333 333 334 335 334 333 333 333 333 333 333
281 286 287 285 282 281 280 279 280 280 277 278 280 281 281 282 281 281 282 281 279 279 284 282 274 276 282 283 285 287 289 290 293 293 293 294 295 297 301 311 320 323 324 325 325 327 329 330 330 329 329 329 329 330 331 332 332 332 332 332 333 334 334 335 335 335 334 333 331 329 328 327 328 327 330 330 330 331 332 332 334 332 332 332 332 332
283 286 286 284 284 282 280 280 280 281 278 276 278 282 283 282 282 281 281 280 274 273 282 284 276 273 278 281 284 286 287 289 291 291 292 294 295 296 299 307 318 322 323 325 326 328 328 329 330 329 329 329 329 330 332 332 332 332 332 332 333 333 334 334 334 334 334 332 331 330 330 329 329 328 330 333 334 334 334 334 332 332 330 331 331 330
284 283 283 284 283 282 280 279 281 282 278 277 282 282 283 282 281 281 281 280 277 282 284 283 280 275 276 278 284 286 285 286 288 289 291 292 294 296 299 303 313 321 323 324 325 327 328 329 330 329 329 329 330 331 332 332 332 332 332 332 332 333 334 334 334 333 334 332 331 330 330 330 329 329 330 332 333 335 334 332 330 329 329 329 329 328
283 281 282 283 283 281 280 282 281 283 280 279 283 283 281 282 282 282 281 279 279 278 275 280 282 276 276 280 284 286 284 286 288 289 290 291 292 294 297 301 307 319 324 325 325 326 327 329 330 330 330 330 331 331 331 331 332 332 332 332 332 332 333 333 334 333 333 333 332 331 330 329 329 329 330 333 334 333 332 330 328 328 326 325 326 327
287 286 285 285 282 280 281 280 282 282 278 281 284 283 283 282 282 282 279 279 279 276 272 277 281 274 276 279 281 283 284 285 286 289 290 292 293 293 295 299 305 313 322 325 326 327 328 329 330 331 332 331 331 332 332 332 332 332 331 331 331 331 333 333 333 333 333 332 332 331 330 329 327 328 329 332 332 332 330 329 326 325 324 323 323 323
288 293 294 289 284 285 286 285 283 282 283 284 284 282 281 280 279 280 280 278 276 269 274 279 281 278 273 278 280 281 282 285 287 289 291 292 293 294 294 297 303 311 319 324 325 326 328 330 331 331 330 331 331 331 332 331 331 331 331 331 330 331 332 333 332 332 332 332 332 331 330 329 327 327 328 329 330 331 329 327 324 324 323 321 321 321
286 287 287 287 292 288 287 285 285 285 284 284 281 280 278 277 278 277 276 277 270 268 276 280 280 280 272 276 281 285 286 287 288 288 290 291 292 293 293 296 301 309 318 323 325 326 327 328 329 330 329 330 330 330 330 330 331 330 330 330 330 330 331 332 332 332 332 332 331 331 331 329 328 328 329 330 329 329 328 327 324 322 320 319 319 319
280 283 287 286 294 288 284 282 283 284 283 282 280 279 274 270 273 265 274 266 268 270 275 279 280 276 276 280 284 286 287 288 289 290 291 292 293 293 292 295 300 307 316 323 325 326 327 327 328 328 329 328 328 328 329 329 330 330 330 330 329 329 331 332 332 331 331 331 331 331 330 330 329 329 329 330 330 330 329 326 323 320 320 318 317 317
277 281 284 285 286 289 287 281 279 279 279 279 277 274 273 268 265 263 267 270 272 275 279 279 281 276 280 282 286 287 290 291 292 292 292 293 293 293 293 294 298 305 313 322 325 326 327 327 328 329 329 329 328 328 329 329 329 329 329 329 329 329 331 331 331 331 331 331 331 331 331 330 330 329 329 330 330 330 329 327 324 322 322 319 319 317
269 272 277 282 278 285 286 285 284 280 277 280 280 279 275 273 270 263 270 265 268 272 276 281 276 272 276 278 287 290 291 292 293 293 293 294 294 294 294 293 295 300 308 319 325 326 327 328 328 329 329 329 328 328 329 329 329 329 329 329 329 329 330 331 331 331 331 331 331 330 331 331 330 329 329 329 330 329 328 326 324 323 322 321 319 318
276 276 280 283 284 285 283 286 285 283 282 281 280 281 275 275 278 273 272 273 273 274 272 276 273 276 281 286 290 292 292 291 292 292 293 292 293 293 293 293 294 297 303 314 323 327 327 328 329 329 329 329 329 328 329 329 329 329 329 329 329 329 330 331 331 331 331 330 330 330 330 330 330 330 330 329 328 329 328 325 324 322 321 320 319 318
278 276 282 283 285 284 285 286 285 285 274 278 280 277 279 281 280 273 271 276 272 270 270 275 277 280 285 287 289 290 290 289 290 290 290 291 292 293 293 293 294 296 299 308 321 326 328 328 329 329 329 329 329 329 328 329 329 329 329 329 329 329 330 330 331 331 331 330 329 329 330 330 329 329 329 328 327 327 326 325 324 321 320 319 318 317
277 279 284 283 283 285 286 286 286 285 283 278 275 279 285 286 284 276 269 268 270 268 269 276 275 276 278 275 287 288 287 288 289 289 289 290 292 292 294 295 296 297 299 304 317 326 329 329 329 330 330 330 330 329 329 329 330 330 330 329 329 329 329 330 331 331 331 330 329 329 329 329 329 329 329 328 327 326 324 323 321 319 318 317 317 317
283 276 281 284 284 285 286 285 283 285 286 282 279 285 279 270 274 275 271 266 266 266 266 273 276 278 278 280 283 285 285 286 289 289 290 293 296 297 297 298 300 299 299 303 312 323 327 329 329 329 330 330 330 330 330 330 330 330 330 330 330 329 330 331 331 331 331 331 330 329 329 329 329 329 329 328 327 325 323 321 320 318 318 317 317 316
284 277 280 284 283 285 284 283 275 279 283 286 286 283 284 280 277 274 273 275 277 267 265 271 273 274 282 282 283 288 290 291 292 291 293 294 295 297 299 300 301 301 299 303 311 321 326 328 329 330 330 330 330 330 330 330 330 329 329 329 330 330 330 331 331 331 330 330 330 329 329 329 329 329 329 327 325 324 323 321 320 318 317 316 317 315
280 283 274 282 285 285 279 280 278 277 277 278 278 276 281 281 282 280 279 277 274 268 267 267 267 275 281 285 286 290 290 292 293 293 294 296 297 299 300 301 302 302 300 304 311 319 324 327 329 330 330 331 331 331 330 330 329 329 330 329 330 329 330 330 331 332 331 330 330 329 328 328 328 328 328 326 325 324 323 321 320 318 318 317 316 315
282 282 276 281 280 280 281 283 282 279 279 278 278 277 279 278 276 273 271 281 279 276 272 268 269 277 283 290 292 292 292 292 293 294 295 296 298 298 300 300 301 302 302 304 311 319 323 326 328 330 330 331 330 330 329 330 330 329 329 329 330 330 330 331 332 332 332 331 330 329 329 328 328 328 327 325 324 324 322 321 319 318 317 316 316 315
287 284 280 277 280 281 284 286 285 284 284 283 282 279 279 279 278 275 270 273 278 279 280 277 272 275 287 293 295 294 293 293 293 294 295 296 297 298 299 300 301 302 304 306 311 318 323 326 328 329 329 329 330 330 329 329 329 329 329 329 330 330 330 331 332 333 332 331 331 329 329 328 328 327 326 325 324 323 322 320 319 318 317 317 316 315
292 281 279 280 284 286 287 288 287 286 285 282 282 283 282 279 280 278 277 276 276 277 275 274 272 275 286 295 295 294 294 294 293 294 295 296 297 298 299 299 300 302 304 307 312 318 323 325 327 328 328 329 329 329 329 329 330 330 330 330 330 330 330 331 333 333 332 332 331 331 330 329 328 327 325 324 324 323 322 321 319 319 318 317 316 314
281 283 280 277 277 278 278 280 281 283 284 280 278 281 283 283 282 281 283 283 276 278 279 274 271 272 285 292 294 294 294 294 294 294 295 296 297 298 299 300 300 302 305 306 311 317 321 324 325 327 328 329 329 329 329 329 329 330 330 330 330 330 331 332 333 333 332 332 331 330 330 329 328 327 326 325 324 323 322 321 319 319 318 316 314 313
284 283 280 275 273 270 268 264 270 274 278 279 280 279 283 283 281 279 274 277 273 276 279 273 273 281 286 290 291 292 295 294 293 293 295 296 297 298 299 300 301 304 306 306 310 315 319 323 325 326 327 328 329 329 329 329 330 330 330 330 331 330 331 332 333 333 332 332 331 330 329 329 328 327 326 325 324 323 322 321 319 318 318 316 314 312
284 284 283 282 279 277 279 280 281 283 279 278 277 280 281 282 284 282 278 274 274 276 276 277 279 281 284 287 289 291 293 291 291 293 294 295 296 298 299 300 303 305 308 308 309 314 319 321 323 326 327 328 329 329 330 330 330 330 331 331 331 332 332 333 333 332 332 332 331 330 329 329 328 328 327 325 325 324 322 320 319 318 317 316 314 312
285 282 283 283 283 283 284 284 286 286 282 282 280 280 280 280 281 280 277 276 280 278 274 280 282 281 284 287 289 291 291 291 291 292 294 294 297 299 299 301 305 306 309 310 309 312 317 320 323 325 327 328 328 329 330 330 331 331 331 331 332 332 332 333 332 332 331 331 330 330 329 329 329 328 327 326 325 323 322 320 319 318 317 316 313 312
284 281 283 283 283 285 285 285 285 285 284 283 283 282 281 280 279 279 279 281 282 277 276 281 282 282 285 288 290 291 291 291 291 293 294 296 298 298 300 302 303 305 309 312 311 312 317 320 323 324 326 327 328 328 329 330 331 331 331 332 332 332 332 333 332 331 331 331 330 330 330 329 329 328 328 326 325 324 322 320 319 318 316 315 314 313
286 282 285 285 283 284 284 285 285 284 283 284 284 284 284 283 280 281 282 282 283 282 284 285 284 284 286 288 290 293 294 293 293 295 296 297 298 298 300 301 302 304 308 312 312 313 317 320 323 324 326 327 328 328 329 330 331 331 331 332 332 332 333 332 332 331 331 330 330 330 330 330 329 328 327 326 325 324 322 320 319 318 316 315 314 312
287 283 287 286 283 284 286 287 286 284 284 283 286 285 285 285 283 282 281 282 283 283 285 285 284 284 290 292 291 293 294 293 295 295 296 297 296 298 299 300 301 304 307 312 313 314 318 320 323 324 325 326 328 329 329 331 331 332 332 332 332 332 332 332 331 331 330 330 331 330 330 329 328 328 327 326 325 323 321 320 319 317 316 315 314 312
289 284 289 286 281 282 285 286 286 286 286 285 284 283 282 281 280 280 280 282 282 282 283 283 282 284 289 292 291 292 293 294 294 296 297 297 297 297 297 299 301 304 307 311 314 315 318 320 322 323 325 326 328 329 330 330 331 331 331 332 332 332 333 332 331 331 330 330 330 330 329 329 328 327 326 326 324 323 321 320 318 317 316 315 313 312
287 285 283 282 280 280 285 286 285 284 282 279 280 282 284 282 282 282 285 286 286 286 282 280 283 288 290 293 291 293 293 293 295 296 296 297 297 297 297 299 301 304 307 311 314 316 318 320 322 324 325 327 328 329 331 331 331 331 332 332 332 333 332 331 331 331 330 330 330 329 329 328 327 326 325 325 323 322 320 319 317 316 315 314 313 312
289 286 284 285 280 281 284 285 284 279 271 273 284 288 289 285 286 286 288 288 288 288 284 286 288 293 296 298 297 298 298 297 296 298 299 298 298 297 298 300 302 304 307 311 315 317 319 321 323 325 326 327 329 330 331 332 331 332 333 333 333 332 331 331 331 330 330 330 330 329 329 328 327 326 325 324 323 321 320 318 317 316 315 314 313 311
288 286 284 286 281 280 283 284 279 274 275 286 289 290 294 290 289 291 292 292 291 292 293 294 296 297 299 300 300 300 300 299 299 299 300 299 299 298 299 300 302 304 305 309 313 318 319 320 322 324 325 327 328 329 330 330 331 331 332 332 331 332 331 331 330 330 330 329 329 329 328 328 327 326 325 323 322 320 319 318 316 315 315 313 312 311
288 286 284 284 283 282 280 279 275 277 284 286 287 290 293 292 288 291 289 292 293 294 295 294 296 297 299 300 302 303 303 303 304 304 301 300 299 298 299 300 302 303 305 306 311 315 319 320 321 322 324 326 328 329 330 330 331 331 330 332 331 331 331 331 330 329 329 329 329 328 328 327 326 325 324 322 321 320 319 318 317 315 314 313 312 311
293 290 285 283 285 280 281 280 280 283 284 286 288 291 292 290 291 289 284 287 293 296 298 297 297 296 298 301 303 303 304 303 298 300 298 298 300 301 302 302 303 303 305 307 311 317 321 323 323 324 325 327 328 329 329 330 330 330 330 330 330 330 330 330 329 329 328 328 328 328 328 327 326 324 323 322 320 319 318 317 316 315 314 312 311 310
294 287 288 284 283 283 281 279 278 275 273 280 288 294 297 297 298 297 292 288 295 298 300 299 298 299 299 302 303 303 304 297 293 295 298 303 307 309 311 310 306 304 305 307 310 314 318 322 323 324 326 326 327 329 329 329 329 329 328 328 329 329 329 329 328 329 328 328 328 328 328 327 326 324 322 321 319 318 318 317 316 315 313 312 310 310
293 293 289 284 284 284 283 280 280 277 279 286 289 293 296 298 299 298 291 285 293 297 300 301 299 300 301 301 302 304 300 294 294 297 300 307 309 310 310 310 311 308 307 308 311 314 318 322 324 324 325 325 325 327 328 328 328 328 327 328 328 329 328 328 329 329 328 328 328 328 327 327 325 324 322 320 319 318 317 316 316 314 313 313 312 310
289 286 285 284 283 284 283 281 279 281 282 289 293 295 298 298 299 293 281 279 290 298 301 301 300 301 302 303 303 302 298 290 296 302 308 309 310 310 310 310 309 310 307 310 312 316 319 320 322 322 323 324 325 327 328 328 328 327 327 327 328 328 328 328 329 330 330 329 328 327 327 326 324 323 322 320 319 318 317 316 315 313 312 312 312 310
284 284 284 281 283 284 283 282 282 283 288 294 295 298 298 299 295 281 279 286 297 299 302 302 301 302 303 303 303 299 303 304 305 308 309 310 309 310 311 310 310 311 310 310 313 312 320 322 324 324 324 325 325 326 327 328 327 326 326 327 327 326 328 330 330 330 329 328 327 326 326 326 324 322 321 321 319 318 316 315 314 313 312 311 310 310
284 283 283 284 283 282 283 281 281 284 290 295 297 298 299 293 283 281 292 301 301 301 303 303 302 304 304 304 304 304 305 307 308 309 309 309 309 309 309 309 310 311 310 310 310 315 320 322 322 323 324 325 326 327 327 327 326 325 325 326 326 327 330 330 329 329 327 327 326 325 325 325 324 322 322 321 319 317 315 315 315 313 312 311 310 309
283 280 279 280 284 284 283 282 281 277 288 297 297 295 299 287 287 296 299 302 303 302 302 303 304 304 305 304 305 305 306 307 307 308 309 310 309 308 308 309 309 310 311 310 312 315 320 320 321 322 323 325 326 327 327 326 324 325 324 325 326 329 328 328 328 327 326 325 325 324 324 324 322 321 321 319 318 316 314 313 313 311 311 311 309 308
287 280 280 282 287 279 280 279 280 286 291 297 296 288 293 296 300 301 301 299 302 303 303 303 304 304 305 305 305 305 306 306 307 309 309 309 309 309 309 309 310 311 311 312 314 316 318 321 321 321 320 324 326 327 327 326 324 324 323 324 325 323 324 325 326 326 324 322 323 323 323 322 321 321 319 317 316 315 314 312 312 311 310 309 307 306
284 282 283 280 286 284 282 284 290 293 294 298 297 296 297 299 302 304 303 302 301 302 305 303 303 304 305 305 305 305 305 306 307 309 308 309 309 310 310 310 310 311 311 311 313 314 316 319 318 320 321 323 324 326 327 327 324 319 319 324 323 323 325 325 324 323 322 322 322 322 322 321 320 318 317 316 315 313 311 310 310 309 308 308 308 307
286 286 287 287 285 290 292 293 293 294 294 293 297 296 297 300 303 304 303 301 303 304 305 303 304 304 305 306 305 305 305 306 307 308 309 310 310 311 311 312 312 312 312 312 311 310 314 317 319 320 320 321 324 325 325 326 324 319 321 324 323 325 326 325 323 321 321 322 322 322 321 318 316 315 315 315 315 313 312 311 310 308 308 308 308 306
284 287 284 282 284 285 281 290 290 290 293 294 294 296 300 302 300 301 301 303 303 304 306 307 306 305 305 305 304 304 305 307 308 309 310 310 310 311 311 311 311 311 311 311 311 310 312 316 318 318 319 320 322 324 325 326 325 323 322 322 324 323 324 322 321 319 320 321 321 320 319 315 314 314 313 314 314 313 312 311 311 309 307 308 308 306
281 289 284 282 284 282 283 288 290 293 294 295 295 295 295 296 298 298 299 302 304 306 306 307 307 305 306 304 305 304 305 307 308 309 309 309 310 310 311 311 311 312 312 312 313 312 312 314 316 316 317 319 321 322 323 323 323 322 323 324 323 323 322 319 318 318 319 320 319 317 316 315 303 309 313 312 312 311 310 310 310 308 307 307 307 305
286 289 281 285 282 285 288 291 292 292 295 295 296 297 297 297 298 298 299 300 304 305 306 307 306 306 305 305 305 304 305 307 309 309 309 309 310 310 311 311 311 311 312 312 311 309 311 311 313 314 316 317 319 320 321 321 322 323 323 323 323 322 321 319 315 318 319 319 317 315 313 313 312 313 313 312 311 312 312 310 310 309 309 310 310 309
286 283 286 285 283 283 283 287 290 285 286 292 294 296 297 299 299 298 299 302 305 305 305 305 305 307 307 306 305 304 304 306 309 309 309 309 310 310 310 310 311 311 312 312 311 311 310 311 312 313 315 316 319 320 320 321 322 323 324 324 323 322 320 317 317 318 318 317 316 314 312 312 313 313 312 311 310 307 303 293 296 305 309 307 302 301
285 287 287 284 283 283 289 291 292 292 293 294 295 298 299 300 299 299 301 302 305 306 305 304 304 304 305 306 305 304 304 305 307 309 309 310 310 310 309 309 309 310 311 311 311 312 311 311 312 313 315 317 319 319 319 320 321 322 323 323 323 322 319 318 316 316 315 314 314 311 312 312 312 312 312 311 309 307 304 303 299 292 295 297 296 297
Wind_Speed
1 3 5 7 4 6 5 6 7 5 4 5 2 4 6 5 9 5 4 5 8 8 7 11 16 18 8 7 4 4 6 7 11 15 15 12 9 7 9 11 14 15 16 15 15 13 11 9 7 7 8 10 11 10 11 12 13 14 14 13 14 11 11 11 11 10 10 10 8 8 9 8 7 7 6 6 6 6 6 7 7 6 6 6 6 6
2 3 8 6 5 6 7 6 4 4 3 4 5 5 8 3 11 4 4 2 2 3 6 10 15 19 14 11 7 6 7 12 12 12 14 15 11 8 11 13 14 15 12 12 10 7 7 8 10 10 10 12 14 13 14 16 16 13 12 13 12 10 11 12 11 10 9 9 9 7 7 6 7 8 8 7 6 7 6 7 7 6 6 7 7 6
2 8 6 2 4 4 3 3 4 5 4 4 5 6 7 8 6 6 6 4 5 5 12 14 16 19 16 14 9 6 7 10 11 10 13 14 13 9 9 13 13 11 12 12 11 10 13 13 12 11 11 13 15 15 15 12 11 12 12 11 11 11 11 11 11 10 10 8 6 7 5 7 5 2 5 6 6 6 7 7 7 6 6 7 6 6
8 6 6 6 3 3 3 3 4 3 3 5 4 3 9 5 1 5 0 0 2 5 5 5 11 14 11 10 8 6 7 10 11 8 11 11 12 13 12 12 13 14 15 14 12 14 13 13 13 12 12 13 12 12 12 13 15 13 12 12 12 12 11 10 11 10 8 7 6 5 7 5 5 5 4 5 6 6 7 7 6 5 6 7 7 7
13 8 1 2 3 5 6 5 4 4 6 4 6 7 9 7 5 7 6 3 4 7 9 11 12 15 12 13 8 6 7 10 14 13 13 15 12 13 11 12 14 16 16 14 13 12 13 15 15 16 15 14 15 15 15 16 15 12 16 14 13 11 11 10 10 10 8 8 7 6 6 6 6 4 6 7 6 7 7 7 6 7 6 7 7 6
14 10 3 5 3 3 4 4 6 5 6 4 6 11 11 8 7 8 9 5 2 6 8 5 5 10 8 8 10 8 5 9 10 14 15 15 15 11 13 13 12 14 14 16 16 17 17 17 16 15 15 16 15 16 16 16 16 13 11 12 12 11 11 11 11 10 9 9 10 9 10 10 9 8 10 12 11 9 8 8 6 6 6 7 6 6
7 1 6 8 9 6 5 7 4 7 7 3 7 8 11 11 9 9 9 2 4 6 4 6 8 10 2 4 4 7 8 12 9 9 12 12 14 11 12 12 12 14 13 11 13 16 16 16 16 16 16 17 17 17 16 14 14 14 13 13 13 12 11 11 11 11 9 10 10 12 11 9 9 10 7 6 7 8 7 6 7 6 5 6 7 6
1 3 5 6 7 9 6 8 4 8 7 9 2 6 6 8 9 10 11 9 7 4 7 2 4 9 11 6 5 6 4 6 7 10 11 8 11 11 12 13 13 14 14 14 14 14 17 18 18 19 18 16 18 17 14 14 14 16 16 15 14 11 11 11 10 11 11 11 10 11 10 9 9 9 8 8 7 6 7 7 7 6 5 5 6 7
0 2 4 8 6 6 9 7 4 11 7 5 0 6 7 7 9 9 7 7 7 7 9 8 5 6 9 5 6 4 6 7 13 13 14 12 10 11 12 14 14 15 16 15 14 15 16 17 18 17 17 18 18 15 15 15 16 16 14 14 13 13 12 11 12 12 12 11 11 10 9 9 7 7 7 6 6 7 7 7 6 6 6 5 5 6
2 0 1 0 2 6 4 3 7 8 6 7 9 3 4 4 5 7 7 7 7 4 9 11 8 7 13 2 3 4 10 13 12 15 17 15 12 12 11 13 13 12 13 15 17 16 16 17 18 19 19 18 17 16 17 17 14 12 12 14 15 14 12 11 12 12 12 11 10 11 11 11 8 7 7 7 8 7 7 8 7 6 6 6 6 6
8 8 9 6 4 3 4 6 6 7 10 2 3 3 5 3 4 3 5 5 3 4 10 13 13 9 11 4 6 6 6 9 10 12 14 13 11 10 9 11 10 10 11 13 14 14 15 16 16 16 17 18 16 13 14 13 13 13 14 15 16 15 11 12 13 13 14 12 11 11 11 11 11 10 10 9 9 8 7 7 7 7 6 6 7 6
5 6 5 4 9 4 4 5 3 5 4 2 1 0 5 8 2 1 2 2 4 5 9 12 12 11 12 4 6 7 9 7 9 12 16 16 11 8 6 6 9 10 11 12 14 15 14 13 13 10 13 13 13 11 13 12 13 13 13 14 15 14 14 13 13 13 13 12 12 11 11 12 11 12 11 12 11 10 10 8 8 6 6 6 6 6
5 10 9 4 4 9 3 4 4 3 2 2 2 0 1 3 3 3 1 3 4 8 4 7 10 7 12 11 7 9 9 11 10 11 14 15 14 10 6 7 8 9 10 12 14 15 14 15 16 14 12 9 9 12 13 15 15 14 14 16 17 16 15 14 13 14 14 13 13 12 12 11 11 12 12 11 11 10 9 8 8 8 8 6 6 6
8 4 3 7 3 6 6 8 4 3 3 5 4 3 3 4 3 4 5 1 3 3 5 5 6 10 4 7 11 15 19 19 17 15 15 17 16 12 8 7 8 8 9 12 13 14 16 16 15 16 15 14 13 14 14 15 14 13 14 16 17 17 15 13 13 14 14 14 13 12 11 11 11 11 11 11 11 10 9 9 10 10 9 9 8 8
6 9 1 4 2 3 9 12 9 7 5 8 4 8 7 3 4 4 5 6 6 6 4 6 4 4 6 6 11 16 19 18 16 16 15 16 15 11 11 8 7 9 10 11 12 14 16 17 18 16 15 14 14 16 15 14 14 14 14 15 17 16 15 15 15 13 15 13 12 11 11 11 10 11 10 10 9 10 10 8 9 9 7 8 7 8
6 7 7 5 2 2 6 3 3 4 7 5 3 2 5 11 4 8 3 2 2 2 5 3 4 3 7 5 10 13 17 16 14 14 11 12 9 7 8 9 9 11 12 12 13 14 15 18 18 16 16 16 15 17 15 16 15 15 16 17 19 19 17 16 15 15 15 13 11 11 12 12 11 9 9 8 8 9 10 10 10 9 8 7 8 7
1 6 4 4 5 5 8 4 4 8 5 4 7 9 9 4 3 0 2 1 3 2 8 1 7 9 8 12 15 12 11 13 14 12 8 10 9 2 4 6 7 9 11 11 13 15 16 16 17 17 17 16 16 16 16 17 17 18 18 17 17 16 14 16 16 15 13 13 12 12 12 11 11 11 12 10 10 10 9 9 8 8 8 8 8 7
3 11 1 5 12 3 6 6 7 6 5 3 3 7 2 1 4 3 5 2 1 3 5 1 6 7 6 7 8 10 11 13 13 8 6 6 2 4 5 5 7 9 11 13 15 16 18 19 18 16 15 18 19 19 18 18 17 17 18 18 19 17 18 17 16 15 14 14 13 11 12 12 12 11 11 10 11 10 9 8 7 7 8 8 7 7
1 9 2 7 5 6 2 3 3 6 5 6 4 2 5 1 3 1 2 4 3 4 3 4 7 8 8 8 4 4 0 3 3 2 2 3 1 3 5 7 7 7 9 11 13 15 17 18 18 17 17 17 18 18 19 19 19 16 14 15 16 19 19 16 12 11 10 11 10 11 12 12 10 9 9 9 10 10 11 10 9 9 8 8 8 8
1 3 4 1 2 4 3 2 3 3 2 5 1 2 3 3 2 4 4 1 2 3 2 6 3 7 7 7 6 2 3 2 1 3 3 5 5 5 6 7 7 7 7 11 12 14 16 17 18 17 17 17 18 16 15 15 14 16 16 16 16 13 11 12 14 14 14 13 11 11 10 10 11 10 10 10 11 10 11 11 10 10 10 11 9 8
1 2 8 2 3 4 6 2 5 6 5 2 2 2 2 1 2 3 0 4 5 3 2 2 5 8 8 4 7 2 3 4 2 3 4 5 6 5 5 7 8 9 7 9 12 14 15 16 16 17 16 17 17 17 17 17 18 17 15 16 16 17 17 17 15 14 13 12 12 12 13 12 11 12 10 10 11 11 10 10 10 10 10 8 9 9
1 4 7 8 6 5 8 4 4 5 4 5 6 5 6 5 3 5 6 1 2 3 3 2 9 7 8 5 7 5 10 10 5 5 5 5 6 5 6 7 9 9 7 8 11 13 15 16 16 16 15 14 15 15 15 14 14 14 14 15 16 16 15 16 15 15 14 13 12 13 12 12 10 11 10 11 11 11 10 10 10 10 9 11 9 10
3 1 4 8 8 9 12 9 6 7 2 3 4 4 4 2 4 4 6 4 1 3 3 3 5 9 6 3 7 9 10 10 10 5 6 5 6 7 8 7 7 9 9 6 10 13 14 15 17 17 18 17 17 16 15 15 16 16 16 16 15 16 17 17 17 15 13 13 12 13 12 11 11 11 12 12 10 11 11 10 10 10 11 10 9 8
5 3 4 9 8 12 11 7 8 4 1 3 3 4 4 5 3 3 2 4 3 1 2 3 4 8 5 4 8 12 14 12 5 5 8 8 6 6 7 6 6 7 7 4 7 10 13 14 15 15 17 17 16 15 16 16 15 15 15 15 15 17 17 15 14 14 14 14 14 13 13 13 11 12 12 12 11 12 11 11 10 10 10 9 8 9
1 3 4 5 5 4 2 4 5 3 1 3 3 5 8 6 4 3 1 1 4 7 7 3 10 9 5 7 10 16 16 19 15 6 6 10 7 6 8 7 5 6 6 3 4 10 13 13 15 16 17 16 15 15 15 15 15 16 16 15 16 16 15 14 13 14 14 15 15 14 14 14 13 13 13 12 10 12 11 11 11 10 11 10 9 9
5 3 3 5 5 5 4 1 0 0 6 3 4 4 6 12 9 3 4 3 4 3 6 4 7 11 11 11 14 10 13 16 13 8 7 5 7 9 9 8 6 5 6 3 4 7 12 15 15 14 14 14 15 16 16 15 15 16 16 17 16 16 15 16 14 15 15 14 15 14 15 14 13 14 14 12 11 12 12 11 11 11 9 11 11 10
3 2 5 7 7 6 7 5 3 2 1 3 4 5 6 7 11 8 2 3 8 4 4 6 9 13 16 16 13 10 17 16 14 14 14 13 7 7 7 7 6 6 6 4 4 8 10 10 13 15 15 14 15 15 15 16 16 16 16 17 16 14 15 15 15 15 15 15 15 14 15 15 14 13 13 12 11 10 10 11 11 11 11 10 11 12
1 6 8 10 13 12 10 12 10 3 6 5 6 6 5 6 5 7 8 10 3 2 9 8 10 9 16 15 12 14 19 16 11 10 12 12 10 10 10 8 9 7 5 3 3 7 12 14 14 15 16 16 15 15 15 16 17 17 17 18 16 15 14 12 14 15 15 15 14 14 14 14 13 13 12 11 10 11 11 11 11 11 10 10 11 11
2 5 2 7 12 13 12 14 12 8 8 8 8 6 6 4 4 10 11 11 4 6 12 9 4 7 13 12 12 16 17 15 13 12 12 9 10 11 8 10 11 10 9 8 6 7 12 13 14 16 16 17 17 17 16 14 14 13 13 13 15 15 16 16 16 17 16 16 15 15 14 12 12 11 11 11 11 11 11 11 10 10 11 10 10 8
1 7 6 7 13 11 11 13 14 11 6 8 9 10 11 8 10 12 13 10 12 13 12 10 7 13 15 14 15 17 15 14 11 9 9 8 11 8 6 8 9 10 12 12 9 8 10 14 15 16 17 16 18 18 17 15 15 15 15 14 14 14 13 13 14 15 16 16 16 14 13 13 12 12 12 12 12 11 11 10 10 11 11 11 10 9
4 6 3 3 4 13 8 10 10 11 10 10 9 8 7 9 9 10 8 9 9 10 13 15 14 17 15 15 13 11 10 9 8 10 12 10 10 7 5 8 10 9 8 11 11 9 10 12 13 14 16 17 18 19 18 17 16 16 16 15 16 16 15 15 15 15 15 16 14 14 13 12 12 13 13 13 11 11 11 11 10 10 10 10 10 10
6 5 3 1 4 10 2 2 8 9 9 9 6 6 6 4 5 6 8 8 6 12 13 10 10 13 16 11 7 9 9 7 8 12 12 9 7 4 5 8 9 10 8 9 10 8 9 12 13 14 16 16 17 17 16 15 15 15 16 15 16 15 15 15 16 16 16 15 14 14 14 13 13 13 13 12 12 12 11 11 11 11 10 10 10 9
4 3 4 2 6 8 4 3 2 1 2 2 3 3 3 4 4 4 5 4 8 10 9 9 13 7 7 8 10 15 13 10 10 11 11 10 6 4 5 7 9 9 8 7 8 7 9 12 13 14 14 13 15 16 17 17 15 15 15 16 16 15 15 15 15 15 15 14 14 14 14 13 14 14 13 13 12 11 11 11 11 11 10 11 10 9
3 4 6 1 3 6 8 8 1 1 1 1 1 1 2 2 2 3 7 7 4 1 6 4 7 6 8 10 9 13 16 15 12 13 6 7 9 8 7 6 9 9 9 7 6 8 7 8 9 11 13 13 14 15 15 16 17 17 16 16 15 16 15 16 15 15 15 14 15 15 14 14 14 14 13 13 13 12 12 12 12 11 9 9 9 9
8 7 5 2 2 5 4 6 3 2 0 1 1 3 5 5 5 9 11 9 6 1 3 6 8 9 9 10 11 12 13 15 13 13 13 7 8 8 8 9 8 8 8 7 5 4 8 8 8 10 12 13 13 11 10 10 10 9 9 10 11 13 15 15 15 15 15 15 15 14 14 14 14 14 13 13 13 13 13 13 10 11 10 10 11 11
8 9 4 3 2 3 2 2 3 1 3 2 5 9 9 5 7 7 4 3 2 4 1 3 6 10 13 13 12 11 11 15 15 14 13 8 7 5 6 7 9 8 9 7 5 5 6 9 10 10 10 8 10 11 11 12 11 11 12 11 13 13 13 14 14 14 14 14 14 15 15 15 14 14 13 13 13 13 13 12 12 11 9 9 8 8
6 5 1 4 1 3 4 4 3 0 1 3 3 4 7 7 8 1 2 4 3 0 10 10 10 10 14 13 12 11 13 13 8 8 5 3 1 2 5 9 8 10 9 9 5 6 7 8 10 10 10 10 11 12 12 11 11 11 11 12 12 13 12 13 13 13 14 14 15 15 15 15 14 14 14 14 14 13 13 12 11 10 9 10 9 9
3 2 3 2 2 2 4 4 3 5 2 3 3 11 9 9 11 4 2 3 2 1 7 11 12 9 10 10 10 10 11 6 5 8 2 10 11 15 14 8 6 9 9 11 6 4 4 5 7 9 11 11 11 12 11 11 12 12 12 12 12 13 13 13 14 13 14 14 15 15 15 14 15 14 14 13 14 13 12 11 10 11 10 11 11 10
4 2 3 0 5 6 4 3 3 2 1 3 13 14 17 12 12 3 2 3 2 2 8 10 12 11 9 9 11 10 7 6 7 7 6 14 19 17 14 17 12 6 9 10 8 5 6 8 11 11 12 13 13 12 12 13 13 12 12 12 12 13 14 14 14 14 15 15 14 14 14 13 14 14 14 13 13 12 13 12 11 10 10 10 11 11
9 6 5 6 10 8 8 4 2 1 3 11 13 15 18 12 7 1 3 2 2 11 9 11 13 13 10 10 8 9 4 4 8 12 14 18 17 17 12 13 15 13 5 10 5 5 6 5 7 8 11 13 13 13 14 14 14 14 13 13 12 13 14 14 15 15 14 12 12 12 13 13 14 14 14 13 12 12 12 11 10 11 11 10 9 10
10 9 6 10 7 10 9 5 1 1 3 5 14 18 17 14 1 4 5 6 12 15 13 11 13 12 11 12 9 8 4 4 9 13 16 17 17 18 14 6 7 10 9 8 8 6 7 9 11 13 13 12 12 12 12 12 13 13 13 12 12 14 15 14 11 11 12 12 13 13 14 13 14 13 12 13 13 12 10 10 11 11 11 10 8 7
7 5 3 6 8 10 8 5 4 3 4 3 10 15 12 8 5 12 8 10 12 13 13 10 12 12 11 11 10 10 12 10 10 11 14 15 14 15 14 11 10 9 5 7 7 6 7 9 11 10 9 10 12 13 13 13 13 12 12 13 14 15 13 10 10 11 11 13 13 13 13 13 12 13 12 12 12 12 11 9 10 10 9 10 11 11
6 6 7 8 7 4 2 5 4 8 4 13 17 9 1 9 5 7 11 12 11 11 11 11 9 11 10 13 11 12 15 17 12 12 13 14 13 14 14 13 12 11 12 3 6 6 9 9 10 11 12 11 13 12 12 14 14 13 12 13 15 11 8 9 10 12 12 13 13 13 13 13 14 12 10 11 12 13 13 11 11 10 10 8 7 7
2 4 4 3 4 7 7 6 4 5 13 13 11 10 13 10 11 10 9 12 13 10 9 10 10 10 12 11 12 12 12 15 17 13 13 14 14 13 12 9 10 11 9 10 5 6 7 7 6 7 5 8 10 12 12 14 13 11 11 12 5 10 10 8 10 11 12 12 13 13 13 13 13 12 11 13 12 12 12 11 10 10 9 8 10 11
0 3 2 6 4 2 5 6 11 13 12 11 8 12 12 15 11 10 9 10 11 12 10 10 12 12 11 12 13 12 12 10 13 15 12 13 14 13 13 12 9 11 9 8 9 5 2 6 9 9 9 9 12 12 13 13 14 11 10 11 9 12 12 12 11 11 13 13 13 13 12 11 11 11 12 13 13 12 11 11 11 10 9 11 10 9
6 3 1 1 5 6 11 15 13 11 12 16 13 9 8 10 11 8 9 11 11 10 8 10 12 14 14 11 11 11 9 11 12 14 12 11 12 12 10 11 8 9 12 11 5 4 4 2 7 10 10 9 11 11 9 10 12 16 12 6 5 11 14 12 13 11 13 14 14 13 12 11 10 11 13 13 12 13 13 14 13 11 11 11 10 8
3 1 1 3 5 8 6 5 12 15 17 20 17 13 5 6 12 11 10 8 12 13 11 9 9 13 13 11 9 10 11 9 11 11 11 10 10 9 10 10 9 6 5 9 11 5 3 4 7 9 10 11 9 9 8 11 12 12 11 12 11 8 10 13 14 13 11 12 11 12 12 12 10 10 10 11 10 10 10 10 11 11 11 10 9 7
4 0 7 3 6 2 8 16 16 17 19 16 10 9 15 16 16 17 11 10 11 11 10 11 9 11 11 10 8 8 9 9 9 9 8 9 9 8 8 9 10 10 7 4 5 5 1 4 6 8 9 10 8 7 8 9 10 12 13 14 15 16 13 10 11 10 10 14 11 10 12 12 14 14 10 10 11 10 9 9 11 11 11 11 10 11
6 4 5 6 6 9 11 9 14 24 15 9 21 20 18 18 17 19 18 15 11 11 12 11 7 9 8 11 11 9 9 9 7 6 7 7 8 7 8 8 7 7 7 7 5 5 4 2 4 5 7 6 7 8 8 10 11 12 14 13 13 15 16 15 14 13 13 11 10 11 11 12 12 11 11 10 9 9 11 13 12 11 9 8 11 14
2 5 7 6 6 7 8 13 16 12 12 21 23 23 22 21 18 17 16 15 13 12 11 13 15 12 8 6 8 8 9 7 7 4 5 6 7 8 8 8 8 8 7 5 4 3 2 2 2 3 5 7 8 9 9 10 11 14 14 13 12 14 16 15 14 13 12 10 10 9 10 11 11 11 11 11 10 9 7 12 11 5 7 7 6 6
3 4 6 5 6 8 12 16 12 9 12 14 17 19 20 17 15 16 17 16 16 12 9 9 13 16 14 9 3 8 7 8 10 4 4 5 6 6 5 6 7 7 8 7 6 2 1 2 1 2 5 6 7 8 10 10 11 11 13 15 15 16 17 17 14 12 11 11 10 11 10 9 9 9 9 10 11 9 10 8 9 12 10 10 8 11
Wind_Direction
137 201 225 223 202 206 223 205 219 248 280 288 312 286 253 241 272 253 263 276 307 311 264 255 271 279 275 257 272 294 315 294 274 270 267 260 251 208 216 213 207 206 211 216 211 204 194 179 170 167 170 171 171 174 174 177 181 182 183 180 187 185 183 180 179 180 180 181 175 177 180 181 179 170 166 171 170 168 174 171 173 173 169 164 163 167
52 299 247 229 207 192 207 209 230 270 288 256 262 267 274 228 267 259 261 243 312 343 279 279 287 281 279 278 270 270 278 276 270 271 271 264 250 225 208 217 214 210 217 218 209 182 156 167 167 164 167 167 172 184 182 186 185 181 182 187 185 181 186 189 187 183 183 187 188 174 176 168 168 166 170 171 169 171 168 169 171 171 167 166 167 168
271 241 244 180 204 196 192 186 193 197 231 241 231 257 279 262 263 274 232 221 233 227 265 272 273 275 273 272 268 249 248 261 261 254 261 263 257 235 218 214 218 214 214 215 206 181 183 177 170 170 174 180 183 183 186 181 170 178 185 190 187 187 187 192 189 183 186 182 165 159 160 162 153 167 161 156 159 157 163 168 168 166 167 165 168 167
278 262 257 213 154 177 229 204 222 234 231 234 250 257 253 269 304 304 249 249 247 204 263 265 274 276 278 265 252 236 225 252 260 255 261 262 259 247 223 210 213 214 212 209 194 191 186 179 176 173 176 179 176 177 181 183 186 185 186 186 188 190 190 191 194 189 180 165 146 136 141 143 146 157 141 131 141 146 146 157 160 166 169 168 166 168
234 234 154 115 192 186 230 232 203 219 258 218 212 234 255 257 225 222 270 269 273 265 257 280 283 281 272 266 260 248 234 250 266 270 263 264 253 252 245 222 210 211 211 207 196 197 188 184 183 182 180 175 179 181 186 188 188 189 191 186 183 185 191 192 193 187 165 147 139 126 119 120 96 96 138 143 155 153 162 155 158 173 171 169 164 165
265 251 231 259 225 195 214 261 228 186 252 264 221 222 235 241 250 251 261 286 315 289 256 242 293 268 273 256 236 233 236 248 250 254 254 254 260 245 243 232 219 220 215 203 196 194 191 191 190 186 181 181 182 185 190 190 190 184 181 180 182 185 189 192 193 181 169 171 163 154 153 166 170 166 170 178 173 166 169 166 160 160 171 167 158 160
259 106 178 226 239 233 203 232 207 159 227 249 254 198 226 237 235 244 261 245 269 242 268 153 222 278 41 325 243 226 212 241 257 259 261 253 251 240 235 229 220 215 219 226 212 194 192 195 191 190 186 184 186 193 187 184 183 181 179 183 184 185 187 190 186 177 175 175 178 177 178 173 175 172 191 177 170 167 160 152 167 164 162 163 155 156
215 220 190 228 240 242 235 245 208 164 198 243 194 154 212 225 227 234 233 216 234 254 273 272 210 271 283 251 259 251 251 259 259 266 265 253 260 246 229 228 219 213 211 205 210 211 198 192 191 192 190 186 194 190 180 180 180 183 184 181 182 183 187 188 180 180 184 182 182 179 179 175 178 180 174 176 169 161 152 156 160 152 156 150 149 150
170 313 226 241 243 240 235 223 174 188 190 242 142 190 225 219 232 239 232 229 231 248 268 271 236 260 257 249 225 249 268 261 270 272 270 265 256 255 247 235 223 214 209 202 205 206 204 198 199 195 190 194 191 182 181 181 186 185 178 175 177 184 185 185 180 182 187 186 182 181 174 175 178 162 161 159 158 157 153 153 146 148 145 140 145 159
304 293 125 210 210 241 238 227 189 176 217 260 256 258 224 234 236 232 233 231 240 201 254 252 233 248 270 219 217 236 227 251 258 266 267 265 258 256 245 246 238 223 211 207 204 203 204 205 200 196 194 191 191 186 184 185 179 174 171 177 180 185 184 180 181 184 186 185 179 182 182 175 164 154 151 160 165 166 161 159 155 145 144 147 148 162
256 279 280 273 250 222 239 238 202 196 210 244 29 305 292 270 238 235 211 215 234 234 243 242 244 220 273 191 215 204 221 220 239 258 263 265 266 263 249 240 234 228 216 208 207 206 204 206 207 198 193 197 191 183 182 175 175 174 177 178 182 185 179 180 182 182 186 184 185 186 181 176 166 161 158 165 169 166 161 161 156 154 155 157 158 157
239 230 249 235 208 228 204 255 250 207 210 177 205 74 345 312 329 282 303 112 192 246 233 237 236 227 249 225 232 244 258 245 228 244 258 262 258 254 256 242 239 223 218 209 202 203 201 202 211 210 208 197 186 178 175 175 174 177 179 178 181 181 183 181 181 184 185 185 187 187 181 177 171 164 170 175 169 169 166 164 159 152 147 156 150 150
271 225 219 270 178 185 183 235 248 214 236 210 258 342 133 269 9 329 198 268 206 235 235 226 225 256 238 250 253 272 262 254 237 238 253 262 265 261 251 239 234 225 219 211 203 198 197 199 200 198 199 183 175 181 181 177 177 178 179 179 181 187 182 181 180 185 185 186 188 186 182 177 172 173 173 175 174 170 171 165 159 162 167 154 154 163
280 295 211 226 229 206 203 232 223 260 207 187 192 160 165 236 228 240 270 250 300 285 269 250 244 244 274 267 207 231 241 239 239 237 240 249 255 258 251 232 232 230 218 216 208 198 194 198 200 196 189 183 180 180 183 182 177 177 180 181 184 187 182 178 181 184 186 191 187 185 182 178 174 178 174 175 172 173 171 170 172 176 171 171 172 163
340 342 321 130 232 188 202 220 218 201 172 202 180 175 188 185 160 236 215 238 239 237 284 288 14 218 184 233 189 217 236 237 234 234 233 240 246 246 247 242 224 229 221 213 211 205 197 196 197 192 186 184 183 182 182 181 181 177 180 181 185 183 183 181 183 184 189 188 186 184 182 179 178 177 177 176 172 168 167 173 177 179 165 164 160 159
216 238 254 217 199 160 204 220 167 187 237 215 154 116 167 226 145 238 191 216 282 321 334 285 213 224 236 233 227 218 221 234 233 237 239 250 255 246 250 242 228 223 221 209 205 206 205 198 197 192 186 183 183 183 182 183 180 180 184 185 187 185 182 181 181 188 187 186 183 181 182 183 178 175 173 168 166 169 168 172 176 171 161 161 158 157
280 263 254 290 279 228 220 196 216 153 195 223 168 224 218 147 146 339 334 22 73 39 256 215 301 282 282 280 268 250 250 232 224 228 229 242 247 243 245 254 246 236 224 213 204 198 200 206 203 192 185 183 183 182 184 184 182 183 184 184 185 184 179 182 187 187 185 182 181 185 182 180 178 176 176 171 166 165 167 171 171 158 160 152 157 152
213 280 237 294 280 276 232 203 213 204 166 96 193 231 62 95 127 137 226 336 43 233 266 111 245 277 260 258 264 257 212 227 227 226 229 249 257 227 244 247 250 246 235 218 204 197 194 199 203 197 189 186 184 183 183 185 186 187 186 183 182 180 181 187 184 184 183 183 182 179 184 186 183 178 175 166 162 158 156 161 146 139 149 164 158 153
114 299 300 223 241 274 325 131 283 250 231 207 189 196 141 283 231 304 106 256 227 250 288 266 259 249 221 248 324 324 348 272 281 277 299 304 327 268 262 261 260 258 245 230 211 199 195 197 199 195 191 190 189 185 184 185 184 183 183 183 183 184 186 180 176 177 180 182 182 182 185 183 181 179 171 164 158 157 160 160 159 160 154 141 155 152
254 254 285 209 166 304 334 117 234 265 255 228 283 296 168 119 187 138 196 130 95 268 34 288 335 249 213 229 187 248 54 336 280 319 284 255 241 248 264 272 282 290 248 224 212 202 198 198 197 195 193 189 187 186 188 183 180 180 181 179 182 180 167 167 177 180 184 185 181 180 180 182 179 176 171 166 160 163 164 163 159 152 155 171 157 157
268 154 275 244 273 348 298 198 221 182 163 150 132 231 172 207 228 103 33 152 162 175 186 246 299 262 260 212 202 201 288 292 268 272 268 243 240 243 255 263 273 274 257 219 210 203 198 198 199 196 193 192 189 187 183 180 180 181 180 179 177 174 177 180 180 179 184 177 183 179 183 181 177 176 167 163 165 161 162 158 158 164 170 147 159 157
189 201 247 293 311 250 233 214 188 171 166 148 164 206 173 181 174 201 250 145 142 128 227 200 257 276 278 309 271 276 301 286 285 264 273 273 256 251 245 245 246 266 265 220 211 202 197 196 196 195 194 193 189 187 184 178 175 177 179 179 179 179 179 177 177 183 181 180 181 183 182 179 176 169 165 164 165 163 160 158 160 161 156 165 164 164
185 215 255 272 255 261 264 229 190 182 134 171 148 238 193 208 157 160 212 235 110 216 150 216 280 268 247 228 290 290 276 273 284 268 272 274 259 251 249 241 248 250 265 223 209 203 198 195 193 191 191 192 192 187 179 175 179 178 178 179 180 180 184 182 181 177 175 178 181 183 179 173 175 169 167 166 166 164 161 159 158 162 166 168 163 163
137 252 255 254 269 270 277 276 199 196 149 318 269 226 231 228 224 229 183 190 183 182 231 252 233 260 281 177 251 276 289 293 282 271 279 280 271 274 276 273 263 268 279 261 206 208 202 196 193 191 191 192 189 183 181 181 179 177 179 179 179 185 183 179 174 172 175 179 182 179 175 177 173 170 171 171 170 165 163 160 161 164 167 164 153 152
100 206 203 291 300 313 342 20 50 7 112 210 217 226 206 225 267 266 311 108 255 223 205 185 264 273 277 307 302 287 304 308 303 274 259 288 289 282 287 284 270 272 280 288 215 205 201 197 196 195 192 189 185 182 181 180 180 179 179 179 183 185 179 175 174 173 176 177 178 178 179 178 173 174 175 173 169 165 162 161 158 163 162 156 159 158
219 221 159 250 266 313 320 328 97 249 223 245 245 213 197 195 212 204 244 198 224 268 210 221 262 264 271 277 276 289 291 284 282 276 269 241 271 293 299 290 290 284 287 276 235 214 208 202 198 195 190 187 184 180 179 181 182 182 180 183 183 180 174 174 173 177 174 176 177 179 179 178 176 177 176 172 168 165 163 160 160 160 160 161 158 158
239 234 214 229 236 223 250 244 238 147 98 230 268 222 215 206 206 198 135 156 216 232 230 231 233 275 283 282 287 305 289 286 297 309 313 315 299 264 256 282 293 294 282 276 229 219 215 206 198 191 187 184 183 182 182 181 182 182 181 183 182 178 176 175 173 174 174 176 179 178 180 178 178 174 174 171 166 161 160 162 161 160 159 162 160 161
139 279 214 224 242 237 241 260 255 235 256 254 262 275 250 221 198 196 198 228 175 242 272 239 226 244 266 275 283 287 276 284 285 290 302 305 301 299 305 309 303 295 318 316 244 212 203 202 195 188 184 183 184 186 185 184 183 182 182 182 179 176 175 173 173 173 175 175 178 179 181 179 173 171 171 166 163 163 163 161 162 162 154 153 158 165
203 257 244 188 252 244 227 247 255 242 232 237 237 243 264 233 196 203 226 225 148 196 234 249 194 236 261 265 267 265 270 277 286 292 291 286 287 293 308 319 319 326 336 336 288 225 208 196 189 188 186 184 181 182 184 185 185 185 185 182 177 174 176 174 174 174 175 176 179 180 177 172 169 166 164 164 164 164 165 164 161 157 155 161 163 164
346 249 258 213 270 267 241 226 247 241 236 234 237 237 235 225 219 215 226 219 205 231 241 266 259 250 254 262 261 259 271 282 287 289 291 293 278 279 300 310 318 329 335 323 289 236 203 197 192 188 186 184 182 181 182 183 184 183 180 177 174 175 177 170 175 175 175 178 180 175 171 168 165 165 164 165 168 168 162 160 160 159 159 163 163 159
190 261 189 234 259 288 275 228 220 227 228 235 240 234 237 235 237 229 230 233 217 247 255 256 259 266 271 255 261 284 279 284 304 290 277 273 281 289 306 306 311 319 322 312 285 233 202 193 193 191 188 187 183 181 182 183 183 181 180 178 175 175 173 172 175 177 177 180 177 170 167 167 167 164 167 168 165 163 162 162 161 161 163 162 159 158
207 273 324 258 306 292 330 193 225 233 223 233 266 278 260 216 224 227 213 216 195 232 241 248 259 258 262 298 340 294 295 301 286 286 286 283 277 280 294 299 302 301 305 303 272 224 196 187 187 188 190 187 184 181 181 182 182 180 181 176 176 175 172 175 176 177 178 177 171 166 167 169 166 166 166 162 165 164 162 159 160 164 166 159 157 157
217 284 300 313 297 268 268 317 314 158 114 27 299 260 274 261 250 279 275 261 230 228 232 228 240 261 310 323 321 303 296 288 287 287 286 285 277 264 269 277 279 276 279 282 254 214 196 189 186 185 185 184 184 183 182 178 178 184 181 178 178 172 172 175 176 177 176 172 169 167 167 165 166 167 165 163 159 160 158 160 163 165 163 163 160 153
233 250 268 225 253 282 314 333 349 91 35 191 248 282 228 242 263 295 278 263 261 181 231 231 257 293 314 322 311 298 302 295 282 281 252 251 287 292 284 265 262 267 268 259 237 199 195 184 179 179 180 182 185 188 183 178 181 183 182 180 174 171 173 175 177 174 173 171 170 168 166 166 166 168 167 159 157 160 163 164 170 167 163 155 154 162
299 300 279 232 261 280 320 333 3 67 226 220 326 279 255 216 244 261 273 274 245 255 353 337 323 324 317 299 293 292 294 289 281 270 276 245 234 243 264 271 268 271 275 278 279 208 178 180 178 177 180 182 179 174 169 180 180 172 171 170 172 177 176 178 174 173 172 171 169 166 166 166 167 165 163 160 159 161 165 169 165 164 163 160 163 164
310 323 308 266 248 287 320 32 24 207 237 287 259 267 277 256 236 277 305 254 190 92 10 308 315 320 313 305 302 301 298 289 283 271 253 227 200 217 250 258 275 272 274 270 249 242 188 172 170 172 175 165 162 165 172 177 171 168 174 173 179 180 179 177 174 173 171 170 168 168 168 166 166 162 160 159 161 164 167 169 166 166 163 159 161 164
296 298 281 298 120 331 313 312 251 44 336 314 348 338 325 320 306 304 240 290 266 248 6 330 322 320 303 299 305 303 299 284 260 272 115 118 114 249 250 275 275 276 273 273 247 227 215 178 166 164 158 161 164 164 173 167 164 172 172 177 180 177 178 175 173 173 172 171 170 168 168 166 163 161 161 161 163 167 166 165 164 164 158 156 161 160
319 348 313 314 309 112 320 323 341 24 332 300 245 310 298 303 299 253 233 263 201 359 359 333 310 274 278 294 300 303 301 304 322 290 354 342 338 325 317 300 288 283 280 277 272 246 221 174 155 155 156 159 166 166 159 159 166 169 173 180 180 177 177 175 175 174 173 173 170 168 166 165 161 161 162 164 166 165 164 163 162 165 164 163 161 167
304 190 298 173 297 324 331 318 313 40 280 260 328 330 322 319 307 230 232 265 238 324 344 312 300 305 303 304 311 321 343 347 284 282 336 334 321 320 321 313 314 295 272 261 243 219 204 180 165 165 163 162 163 162 156 156 161 167 176 181 181 181 178 179 177 174 175 175 169 164 162 161 160 160 163 165 162 161 162 166 169 165 168 169 166 169
357 353 329 3 355 351 324 323 353 57 6 334 336 338 332 331 331 231 344 308 292 333 331 310 305 315 312 310 311 320 308 294 301 307 323 313 307 304 306 309 315 319 293 263 242 212 179 160 136 152 162 168 169 160 159 161 167 173 178 182 180 183 184 184 183 180 172 161 157 158 157 157 161 163 162 160 159 163 168 165 160 163 169 169 167 163
349 351 23 3 330 330 333 307 294 309 246 326 347 337 334 331 81 44 353 307 324 316 314 318 318 317 320 319 327 315 250 243 279 290 300 301 306 304 307 297 289 289 289 242 232 189 160 163 163 167 172 172 162 161 159 162 171 176 179 179 181 186 188 187 175 160 156 155 156 157 159 159 162 161 159 158 162 165 165 165 164 161 164 154 160 168
345 338 316 343 354 345 323 310 280 256 237 313 338 335 318 333 39 335 301 300 303 302 305 314 313 316 317 317 314 304 296 295 287 288 292 296 296 294 299 311 316 317 302 217 216 193 177 170 170 172 169 163 159 159 162 163 171 179 179 181 189 194 183 160 150 152 154 155 157 158 158 159 160 159 161 167 163 161 162 161 157 159 158 158 168 168
333 337 342 340 320 292 327 311 317 2 329 347 334 322 40 3 307 268 294 300 304 297 302 305 311 312 316 312 309 302 305 306 304 301 299 299 303 304 314 325 329 326 320 302 158 214 182 173 171 171 169 165 165 166 166 168 173 177 179 188 196 183 143 131 144 152 155 154 154 156 158 160 158 160 160 160 163 160 158 152 147 149 160 171 148 129
296 333 345 329 37 330 335 351 359 299 290 317 349 327 317 297 289 292 309 314 318 313 310 310 311 313 311 305 305 307 304 306 309 314 311 306 308 312 316 328 331 328 342 320 273 193 184 169 151 141 151 161 166 166 166 171 176 176 176 186 149 116 121 139 153 153 153 153 152 154 158 160 160 158 154 159 161 162 152 148 145 144 149 143 144 157
91 336 282 291 320 318 298 280 268 279 290 293 308 293 286 290 293 290 287 294 306 308 310 305 302 305 306 306 304 304 302 298 297 301 303 301 307 314 322 330 332 321 323 326 313 293 202 152 153 154 160 167 169 174 175 170 158 140 167 187 156 150 154 167 163 159 153 151 152 155 160 156 154 154 158 161 156 146 136 136 143 145 149 155 167 168
290 282 272 236 261 249 256 248 261 287 298 303 302 284 277 292 299 291 289 301 295 286 288 289 300 306 308 306 303 301 293 297 299 301 303 305 308 312 316 317 327 328 325 333 348 352 297 191 166 164 167 172 174 174 167 163 157 169 174 132 148 165 165 162 158 164 159 155 156 159 154 149 149 153 157 157 161 156 155 153 156 157 163 165 169 169
282 13 356 276 287 335 309 297 313 315 319 313 311 310 290 285 307 310 299 287 287 295 292 280 282 289 290 295 288 285 292 292 291 292 297 304 307 310 317 313 322 336 334 319 318 335 280 215 183 179 171 172 179 170 164 165 174 162 143 153 142 141 156 156 156 161 162 155 162 154 150 148 151 147 150 158 153 149 150 153 158 158 162 167 162 148
314 345 332 254 298 260 288 309 309 312 307 296 303 322 329 330 325 319 314 300 290 285 288 289 296 299 305 300 287 289 293 289 286 291 301 304 309 318 319 324 329 331 335 312 307 318 275 206 199 182 175 173 167 158 155 164 163 158 155 153 156 150 151 152 144 143 153 161 164 153 157 154 148 148 155 159 153 149 150 157 158 158 162 165 156 151
274 357 306 317 312 279 278 285 325 327 326 338 336 336 333 327 327 319 319 317 300 296 299 299 279 273 286 288 297 299 295 297 299 296 299 306 312 316 319 320 318 316 316 329 327 326 300 242 195 185 168 151 151 150 155 161 160 154 154 157 157 154 149 151 158 164 167 161 151 159 160 153 159 159 152 149 149 150 157 164 168 169 177 177 171 173
319 358 323 327 320 327 333 325 340 353 328 320 319 320 320 320 320 317 315 316 320 318 312 310 311 308 295 282 293 298 286 306 318 313 316 309 302 311 318 321 323 325 321 325 327 334 318 294 215 157 144 147 151 152 153 156 162 165 163 161 159 154 152 153 158 161 161 162 157 160 157 158 159 152 150 150 147 128 72 36 58 104 149 148 134 116
342 331 334 327 321 306 306 307 313 300 292 288 292 303 309 314 319 319 317 314 315 316 304 306 312 318 324 324 280 284 307 342 304 319 330 318 307 303 324 334 332 328 325 330 335 341 323 291 271 147 141 149 151 151 156 159 160 162 162 162 165 166 160 156 154 157 154 158 163 158 156 150 146 148 146 148 143 135 122 107 49 46 84 116 118 131